date,time,SUV Intensity [MED/Hr],UV Index,Daily total [MED],Since Last [MED]
25/08/2022,00:12:13,0.000,0.0,0.0,0.0
25/08/2022,00:13:04,0.000,0.0,0.0,0.0
25/08/2022,00:14:04,0.000,0.0,0.0,0.0
25/08/2022,00:15:13,0.000,0.0,0.0,0.0
25/08/2022,00:16:04,0.000,0.0,0.0,0.0
25/08/2022,00:17:04,0.000,0.0,0.0,0.0
25/08/2022,00:18:04,0.000,0.0,0.0,0.0
25/08/2022,00:19:04,0.000,0.0,0.0,0.0
25/08/2022,00:20:04,0.000,0.0,0.0,0.0
25/08/2022,00:21:05,0.000,0.0,0.0,0.0
25/08/2022,00:22:04,0.000,0.0,0.0,0.0
25/08/2022,00:23:12,0.000,0.0,0.0,0.0
25/08/2022,00:24:04,0.000,0.0,0.0,0.0
25/08/2022,00:25:05,0.000,0.0,0.0,0.0
25/08/2022,00:26:13,0.000,0.0,0.0,0.0
25/08/2022,00:27:04,0.000,0.0,0.0,0.0
25/08/2022,00:28:04,0.000,0.0,0.0,0.0
25/08/2022,00:29:05,0.000,0.0,0.0,0.0
25/08/2022,00:30:04,0.000,0.0,0.0,0.0
25/08/2022,00:31:04,0.000,0.0,0.0,0.0
25/08/2022,00:32:04,0.000,0.0,0.0,0.0
25/08/2022,00:33:04,0.000,0.0,0.0,0.0
25/08/2022,00:34:04,0.000,0.0,0.0,0.0
25/08/2022,00:35:04,0.000,0.0,0.0,0.0
25/08/2022,00:36:04,0.000,0.0,0.0,0.0
25/08/2022,00:37:04,0.000,0.0,0.0,0.0
25/08/2022,00:38:04,0.000,0.0,0.0,0.0
25/08/2022,00:39:04,0.000,0.0,0.0,0.0
25/08/2022,00:40:04,0.000,0.0,0.0,0.0
25/08/2022,00:41:04,0.000,0.0,0.0,0.0
25/08/2022,00:42:04,0.000,0.0,0.0,0.0
25/08/2022,00:43:05,0.000,0.0,0.0,0.0
25/08/2022,00:44:04,-0.001,0.0,0.0,0.0
25/08/2022,00:45:04,0.000,0.0,0.0,0.0
25/08/2022,00:46:05,0.000,0.0,0.0,0.0
25/08/2022,00:47:04,0.000,0.0,0.0,0.0
25/08/2022,00:48:04,0.000,0.0,0.0,0.0
25/08/2022,00:49:04,0.000,0.0,0.0,0.0
25/08/2022,00:50:05,0.000,0.0,0.0,0.0
25/08/2022,00:51:04,0.000,0.0,0.0,0.0
25/08/2022,00:52:04,0.000,0.0,0.0,0.0
25/08/2022,00:53:04,-0.000,0.0,0.0,0.0
25/08/2022,00:54:04,0.000,0.0,0.0,0.0
25/08/2022,00:55:04,0.000,0.0,0.0,0.0
25/08/2022,00:56:04,-0.002,0.0,0.0,0.0
25/08/2022,00:57:13,0.000,0.0,0.0,0.0
25/08/2022,00:58:04,0.000,0.0,0.0,0.0
25/08/2022,00:59:05,0.000,0.0,0.0,0.0
25/08/2022,01:00:04,-0.001,0.0,0.0,0.0
25/08/2022,01:01:04,-0.000,0.0,0.0,0.0
25/08/2022,01:02:13,0.000,0.0,0.0,0.0
25/08/2022,01:03:04,-0.000,0.0,0.0,0.0
25/08/2022,01:04:05,-0.000,0.0,0.0,0.0
25/08/2022,01:05:04,0.000,0.0,0.0,0.0
25/08/2022,01:06:04,-0.000,0.0,0.0,0.0
25/08/2022,01:07:12,-0.001,0.0,0.0,0.0
25/08/2022,01:08:12,-0.000,0.0,0.0,0.0
25/08/2022,01:09:04,-0.001,0.0,0.0,0.0
25/08/2022,01:10:04,-0.000,0.0,0.0,0.0
25/08/2022,01:11:05,-0.000,0.0,0.0,0.0
25/08/2022,01:12:04,-0.001,0.0,0.0,0.0
25/08/2022,01:13:04,0.000,0.0,0.0,0.0
25/08/2022,01:14:04,-0.000,0.0,0.0,0.0
25/08/2022,01:15:04,-0.001,0.0,0.0,0.0
25/08/2022,01:16:05,-0.000,0.0,0.0,0.0
25/08/2022,01:17:04,-0.000,0.0,0.0,0.0
25/08/2022,01:18:04,-0.001,0.0,0.0,0.0
25/08/2022,01:19:05,0.000,0.0,0.0,0.0
25/08/2022,01:20:04,0.000,0.0,0.0,0.0
25/08/2022,01:21:04,0.000,0.0,0.0,0.0
25/08/2022,01:22:04,0.000,0.0,0.0,0.0
25/08/2022,01:23:04,0.000,0.0,0.0,0.0
25/08/2022,01:24:04,-0.001,0.0,0.0,0.0
25/08/2022,01:25:04,-0.000,0.0,0.0,0.0
25/08/2022,01:25:56,-0.001,0.0,0.0,0.0
25/08/2022,01:27:05,-0.000,0.0,0.0,0.0
25/08/2022,01:28:04,-0.000,0.0,0.0,0.0
25/08/2022,01:29:04,-0.000,0.0,0.0,0.0
25/08/2022,01:30:04,-0.001,0.0,0.0,0.0
25/08/2022,01:31:05,-0.000,0.0,0.0,0.0
25/08/2022,01:32:04,0.000,0.0,0.0,0.0
25/08/2022,01:33:04,-0.000,0.0,0.0,0.0
25/08/2022,01:34:05,-0.001,0.0,0.0,0.0
25/08/2022,01:35:04,0.000,0.0,0.0,0.0
25/08/2022,01:36:04,0.000,0.0,0.0,0.0
25/08/2022,01:37:04,-0.000,0.0,0.0,0.0
25/08/2022,01:38:04,0.000,0.0,0.0,0.0
25/08/2022,01:39:04,0.000,0.0,0.0,0.0
25/08/2022,01:40:04,0.000,0.0,0.0,0.0
25/08/2022,01:41:05,0.000,0.0,0.0,0.0
25/08/2022,01:42:12,-0.000,0.0,0.0,0.0
25/08/2022,01:43:04,0.000,0.0,0.0,0.0
25/08/2022,01:44:04,-0.001,0.0,0.0,0.0
25/08/2022,01:45:05,0.000,0.0,0.0,0.0
25/08/2022,01:46:04,0.000,0.0,0.0,0.0
25/08/2022,01:47:13,0.000,0.0,0.0,0.0
25/08/2022,01:48:04,0.000,0.0,0.0,0.0
25/08/2022,01:49:06,0.000,0.0,0.0,0.0
25/08/2022,01:50:04,0.000,0.0,0.0,0.0
25/08/2022,01:51:06,0.000,0.0,0.0,0.0
25/08/2022,01:52:04,0.000,0.0,0.0,0.0
25/08/2022,01:53:12,0.000,0.0,0.0,0.0
25/08/2022,01:54:04,0.000,0.0,0.0,0.0
25/08/2022,01:55:05,0.000,0.0,0.0,0.0
25/08/2022,01:56:12,0.000,0.0,0.0,0.0
25/08/2022,01:57:04,0.000,0.0,0.0,0.0
25/08/2022,01:58:04,0.000,0.0,0.0,0.0
25/08/2022,01:59:05,0.000,0.0,0.0,0.0
25/08/2022,02:00:04,0.000,0.0,0.0,0.0
25/08/2022,02:01:04,0.000,0.0,0.0,0.0
25/08/2022,02:02:04,0.000,0.0,0.0,0.0
25/08/2022,02:03:05,-0.001,0.0,0.0,0.0
25/08/2022,02:04:04,0.000,0.0,0.0,0.0
25/08/2022,02:05:04,0.000,0.0,0.0,0.0
25/08/2022,02:06:04,0.000,0.0,0.0,0.0
25/08/2022,02:07:04,0.000,0.0,0.0,0.0
25/08/2022,02:08:07,-0.000,0.0,0.0,0.0
25/08/2022,02:09:04,0.000,0.0,0.0,0.0
25/08/2022,02:10:04,0.000,0.0,0.0,0.0
25/08/2022,02:11:04,-0.001,0.0,0.0,0.0
25/08/2022,02:12:04,0.000,0.0,0.0,0.0
25/08/2022,02:13:05,0.000,0.0,0.0,0.0
25/08/2022,02:14:04,0.000,0.0,0.0,0.0
25/08/2022,02:15:05,-0.001,0.0,0.0,0.0
25/08/2022,02:16:04,0.000,0.0,0.0,0.0
25/08/2022,02:17:04,0.000,0.0,0.0,0.0
25/08/2022,02:18:04,0.000,0.0,0.0,0.0
25/08/2022,02:19:04,-0.000,0.0,0.0,0.0
25/08/2022,02:20:04,0.000,0.0,0.0,0.0
25/08/2022,02:21:04,0.000,0.0,0.0,0.0
25/08/2022,02:22:05,0.000,0.0,0.0,0.0
25/08/2022,02:23:05,0.000,0.0,0.0,0.0
25/08/2022,02:24:05,0.000,0.0,0.0,0.0
25/08/2022,02:25:04,0.000,0.0,0.0,0.0
25/08/2022,02:26:05,0.000,0.0,0.0,0.0
25/08/2022,02:27:04,0.000,0.0,0.0,0.0
25/08/2022,02:28:04,0.000,0.0,0.0,0.0
25/08/2022,02:29:05,0.000,0.0,0.0,0.0
25/08/2022,02:30:13,0.000,0.0,0.0,0.0
25/08/2022,02:31:05,0.000,0.0,0.0,0.0
25/08/2022,02:32:05,0.000,0.0,0.0,0.0
25/08/2022,02:33:04,0.000,0.0,0.0,0.0
25/08/2022,02:34:04,0.000,0.0,0.0,0.0
25/08/2022,02:35:04,0.000,0.0,0.0,0.0
25/08/2022,02:36:04,0.000,0.0,0.0,0.0
25/08/2022,02:37:05,0.000,0.0,0.0,0.0
25/08/2022,02:38:04,0.000,0.0,0.0,0.0
25/08/2022,02:39:04,0.000,0.0,0.0,0.0
25/08/2022,02:40:05,0.000,0.0,0.0,0.0
25/08/2022,02:41:04,0.000,0.0,0.0,0.0
25/08/2022,02:42:04,0.000,0.0,0.0,0.0
25/08/2022,02:43:05,0.000,0.0,0.0,0.0
25/08/2022,02:44:04,0.000,0.0,0.0,0.0
25/08/2022,02:45:04,0.000,0.0,0.0,0.0
25/08/2022,02:46:04,0.000,0.0,0.0,0.0
25/08/2022,02:47:04,-0.001,0.0,0.0,0.0
25/08/2022,02:48:05,0.000,0.0,0.0,0.0
25/08/2022,02:49:04,0.000,0.0,0.0,0.0
25/08/2022,02:50:04,0.000,0.0,0.0,0.0
25/08/2022,02:51:04,0.000,0.0,0.0,0.0
25/08/2022,02:52:04,0.000,0.0,0.0,0.0
25/08/2022,02:53:04,0.000,0.0,0.0,0.0
25/08/2022,02:54:05,0.000,0.0,0.0,0.0
25/08/2022,02:55:04,0.000,0.0,0.0,0.0
25/08/2022,02:56:04,-0.000,0.0,0.0,0.0
25/08/2022,02:57:05,0.000,0.0,0.0,0.0
25/08/2022,02:58:05,-0.000,0.0,0.0,0.0
25/08/2022,02:59:05,-0.000,0.0,0.0,0.0
25/08/2022,03:00:21,0.000,0.0,0.0,0.0
25/08/2022,03:02:13,0.000,0.0,0.0,0.0
25/08/2022,03:03:04,0.000,0.0,0.0,0.0
25/08/2022,03:04:04,0.000,0.0,0.0,0.0
25/08/2022,03:05:05,0.000,0.0,0.0,0.0
25/08/2022,03:06:04,0.000,0.0,0.0,0.0
25/08/2022,03:07:13,-0.001,0.0,0.0,0.0
25/08/2022,03:08:04,-0.001,0.0,0.0,0.0
25/08/2022,03:09:05,-0.000,0.0,0.0,0.0
25/08/2022,03:10:13,0.000,0.0,0.0,0.0
25/08/2022,03:11:04,0.000,0.0,0.0,0.0
25/08/2022,03:12:04,0.000,0.0,0.0,0.0
25/08/2022,03:13:05,0.000,0.0,0.0,0.0
25/08/2022,03:14:04,0.000,0.0,0.0,0.0
25/08/2022,03:15:04,0.000,0.0,0.0,0.0
25/08/2022,03:16:04,0.000,0.0,0.0,0.0
25/08/2022,03:17:04,0.000,0.0,0.0,0.0
25/08/2022,03:18:15,0.000,0.0,0.0,0.0
25/08/2022,03:20:05,0.000,0.0,0.0,0.0
25/08/2022,03:21:14,0.000,0.0,0.0,0.0
25/08/2022,03:22:03,0.000,0.0,0.0,0.0
25/08/2022,03:23:04,0.000,0.0,0.0,0.0
25/08/2022,03:24:05,0.000,0.0,0.0,0.0
25/08/2022,03:25:04,0.000,0.0,0.0,0.0
25/08/2022,03:26:05,0.000,0.0,0.0,0.0
25/08/2022,03:27:04,0.000,0.0,0.0,0.0
25/08/2022,03:28:04,-0.001,0.0,0.0,0.0
25/08/2022,03:29:06,0.000,0.0,0.0,0.0
25/08/2022,03:30:05,0.000,0.0,0.0,0.0
25/08/2022,03:31:05,0.000,0.0,0.0,0.0
25/08/2022,03:32:04,0.000,0.0,0.0,0.0
25/08/2022,03:33:04,0.000,0.0,0.0,0.0
25/08/2022,03:34:05,0.000,0.0,0.0,0.0
25/08/2022,03:35:05,0.000,0.0,0.0,0.0
25/08/2022,03:36:04,0.000,0.0,0.0,0.0
25/08/2022,03:37:04,0.000,0.0,0.0,0.0
25/08/2022,03:38:04,0.000,0.0,0.0,0.0
25/08/2022,03:39:04,0.000,0.0,0.0,0.0
25/08/2022,03:40:04,0.000,0.0,0.0,0.0
25/08/2022,03:41:07,0.000,0.0,0.0,0.0
25/08/2022,03:42:05,0.000,0.0,0.0,0.0
25/08/2022,03:43:05,0.000,0.0,0.0,0.0
25/08/2022,03:44:04,0.000,0.0,0.0,0.0
25/08/2022,03:45:05,0.000,0.0,0.0,0.0
25/08/2022,03:46:05,0.000,0.0,0.0,0.0
25/08/2022,03:47:05,0.000,0.0,0.0,0.0
25/08/2022,03:48:04,0.000,0.0,0.0,0.0
25/08/2022,03:49:04,0.000,0.0,0.0,0.0
25/08/2022,03:50:04,0.000,0.0,0.0,0.0
25/08/2022,03:51:05,0.000,0.0,0.0,0.0
25/08/2022,03:52:12,0.000,0.0,0.0,0.0
25/08/2022,03:53:04,0.000,0.0,0.0,0.0
25/08/2022,03:54:05,0.000,0.0,0.0,0.0
25/08/2022,03:55:13,0.000,0.0,0.0,0.0
25/08/2022,03:56:05,0.000,0.0,0.0,0.0
25/08/2022,03:57:05,0.000,0.0,0.0,0.0
25/08/2022,03:58:05,0.000,0.0,0.0,0.0
25/08/2022,03:59:05,0.000,0.0,0.0,0.0
25/08/2022,04:00:04,0.000,0.0,0.0,0.0
25/08/2022,04:01:05,0.000,0.0,0.0,0.0
25/08/2022,04:02:05,0.000,0.0,0.0,0.0
25/08/2022,04:03:05,0.000,0.0,0.0,0.0
25/08/2022,04:04:05,-0.001,0.0,0.0,0.0
25/08/2022,04:05:06,0.000,0.0,0.0,0.0
25/08/2022,04:06:04,0.000,0.0,0.0,0.0
25/08/2022,04:07:04,0.000,0.0,0.0,0.0
25/08/2022,04:08:05,-0.001,0.0,0.0,0.0
25/08/2022,04:09:04,0.000,0.0,0.0,0.0
25/08/2022,04:10:04,0.000,0.0,0.0,0.0
25/08/2022,04:11:05,0.000,0.0,0.0,0.0
25/08/2022,04:12:04,0.000,0.0,0.0,0.0
25/08/2022,04:13:04,0.000,0.0,0.0,0.0
25/08/2022,04:14:05,0.000,0.0,0.0,0.0
25/08/2022,04:15:05,0.000,0.0,0.0,0.0
25/08/2022,04:16:04,0.000,0.0,0.0,0.0
25/08/2022,04:17:04,0.000,0.0,0.0,0.0
25/08/2022,04:18:14,0.000,0.0,0.0,0.0
25/08/2022,04:19:03,0.000,0.0,0.0,0.0
25/08/2022,04:20:05,0.000,0.0,0.0,0.0
25/08/2022,04:21:13,0.000,0.0,0.0,0.0
25/08/2022,04:22:05,0.000,0.0,0.0,0.0
25/08/2022,04:22:58,0.000,0.0,0.0,0.0
25/08/2022,04:24:05,0.000,0.0,0.0,0.0
25/08/2022,04:25:05,-0.001,0.0,0.0,0.0
25/08/2022,04:26:13,0.000,0.0,0.0,0.0
25/08/2022,04:27:04,0.000,0.0,0.0,0.0
25/08/2022,04:28:04,0.000,0.0,0.0,0.0
25/08/2022,04:29:04,0.000,0.0,0.0,0.0
25/08/2022,04:30:04,0.000,0.0,0.0,0.0
25/08/2022,04:31:04,0.000,0.0,0.0,0.0
25/08/2022,04:32:05,0.000,0.0,0.0,0.0
25/08/2022,04:33:06,0.000,0.0,0.0,0.0
25/08/2022,04:34:05,0.000,0.0,0.0,0.0
25/08/2022,04:35:04,0.000,0.0,0.0,0.0
25/08/2022,04:36:04,0.000,0.0,0.0,0.0
25/08/2022,04:37:05,-0.001,0.0,0.0,0.0
25/08/2022,04:38:05,0.000,0.0,0.0,0.0
25/08/2022,04:39:05,0.000,0.0,0.0,0.0
25/08/2022,04:40:04,0.000,0.0,0.0,0.0
25/08/2022,04:41:05,0.000,0.0,0.0,0.0
25/08/2022,04:42:04,0.000,0.0,0.0,0.0
25/08/2022,04:43:04,0.000,0.0,0.0,0.0
25/08/2022,04:44:04,0.000,0.0,0.0,0.0
25/08/2022,04:45:04,0.000,0.0,0.0,0.0
25/08/2022,04:46:04,0.000,0.0,0.0,0.0
25/08/2022,04:47:04,0.000,0.0,0.0,0.0
25/08/2022,04:48:04,0.000,0.0,0.0,0.0
25/08/2022,04:49:04,0.000,0.0,0.0,0.0
25/08/2022,04:50:05,0.000,0.0,0.0,0.0
25/08/2022,04:51:04,0.000,0.0,0.0,0.0
25/08/2022,04:52:04,0.000,0.0,0.0,0.0
25/08/2022,04:53:05,0.000,0.0,0.0,0.0
25/08/2022,04:54:04,0.000,0.0,0.0,0.0
25/08/2022,04:55:12,0.000,0.0,0.0,0.0
25/08/2022,04:56:05,-0.001,0.0,0.0,0.0
25/08/2022,04:57:05,0.000,0.0,0.0,0.0
25/08/2022,04:58:05,0.000,0.0,0.0,0.0
25/08/2022,04:59:05,0.000,0.0,0.0,0.0
25/08/2022,05:00:05,0.000,0.0,0.0,0.0
25/08/2022,05:01:05,0.000,0.0,0.0,0.0
25/08/2022,05:02:05,0.000,0.0,0.0,0.0
25/08/2022,05:03:05,0.000,0.0,0.0,0.0
25/08/2022,05:04:05,0.000,0.0,0.0,0.0
25/08/2022,05:05:04,0.000,0.0,0.0,0.0
25/08/2022,05:06:04,0.000,0.0,0.0,0.0
25/08/2022,05:07:04,0.000,0.0,0.0,0.0
25/08/2022,05:08:05,0.000,0.0,0.0,0.0
25/08/2022,05:09:05,0.000,0.0,0.0,0.0
25/08/2022,05:10:04,0.000,0.0,0.0,0.0
25/08/2022,05:11:04,0.000,0.0,0.0,0.0
25/08/2022,05:12:04,0.000,0.0,0.0,0.0
25/08/2022,05:13:04,0.000,0.0,0.0,0.0
25/08/2022,05:14:05,0.000,0.0,0.0,0.0
25/08/2022,05:15:04,0.000,0.0,0.0,0.0
25/08/2022,05:16:04,0.000,0.0,0.0,0.0
25/08/2022,05:17:05,0.000,0.0,0.0,0.0
25/08/2022,05:18:05,0.000,0.0,0.0,0.0
25/08/2022,05:19:05,0.000,0.0,0.0,0.0
25/08/2022,05:20:05,0.000,0.0,0.0,0.0
25/08/2022,05:21:05,0.000,0.0,0.0,0.0
25/08/2022,05:22:04,0.000,0.0,0.0,0.0
25/08/2022,05:23:04,0.000,0.0,0.0,0.0
25/08/2022,05:24:13,0.000,0.0,0.0,0.0
25/08/2022,05:25:04,0.000,0.0,0.0,0.0
25/08/2022,05:26:13,0.000,0.0,0.0,0.0
25/08/2022,05:27:05,0.001,0.0,0.0,0.0
25/08/2022,05:28:05,0.001,0.0,0.0,0.0
25/08/2022,05:29:13,0.001,0.0,0.0,0.0
25/08/2022,05:30:05,0.001,0.0,0.0,0.0
25/08/2022,05:31:05,0.001,0.0,0.0,0.0
25/08/2022,05:32:05,0.001,0.0,0.0,0.0
25/08/2022,05:33:04,0.001,0.0,0.0,0.0
25/08/2022,05:34:05,0.000,0.0,0.0,0.0
25/08/2022,05:35:05,0.001,0.0,0.0,0.0
25/08/2022,05:36:04,0.002,0.0,0.0,0.0
25/08/2022,05:37:05,0.001,0.0,0.0,0.0
25/08/2022,05:38:05,0.002,0.0,0.0,0.0
25/08/2022,05:39:05,0.001,0.0,0.0,0.0
25/08/2022,05:40:04,0.001,0.0,0.0,0.0
25/08/2022,05:41:05,0.002,0.0,0.0,0.0
25/08/2022,05:42:05,0.002,0.0,0.0,0.0
25/08/2022,05:43:04,0.002,0.0,0.0,0.0
25/08/2022,05:44:05,0.002,0.0,0.0,0.0
25/08/2022,05:45:05,0.002,0.0,0.0,0.0
25/08/2022,05:46:04,0.002,0.0,0.0,0.0
25/08/2022,05:47:05,0.002,0.0,0.0,0.0
25/08/2022,05:48:04,0.002,0.0,0.0,0.0
25/08/2022,05:49:05,0.002,0.0,0.0,0.0
25/08/2022,05:50:04,0.003,0.0,0.0,0.0
25/08/2022,05:51:04,0.003,0.0,0.0,0.0
25/08/2022,05:52:05,0.004,0.0,0.0,0.0
25/08/2022,05:53:04,0.003,0.0,0.0,0.0
25/08/2022,05:54:04,0.003,0.0,0.0,0.0
25/08/2022,05:55:13,0.003,0.0,0.0,0.0
25/08/2022,05:56:05,0.002,0.0,0.0,0.0
25/08/2022,05:57:05,0.003,0.0,0.0,0.0
25/08/2022,05:58:13,0.004,0.0,0.0,0.0
25/08/2022,05:59:05,0.004,0.0,0.0,0.0
25/08/2022,06:00:05,0.003,0.0,0.0,0.0
25/08/2022,06:01:04,0.004,0.0,0.0,0.0
25/08/2022,06:02:05,0.004,0.0,0.0,0.0
25/08/2022,06:03:05,0.003,0.0,0.0,0.0
25/08/2022,06:04:13,0.003,0.0,0.0,0.0
25/08/2022,06:05:04,0.003,0.0,0.0,0.0
25/08/2022,06:06:13,0.003,0.0,0.0,0.0
25/08/2022,06:07:04,0.005,0.0,0.0,0.0
25/08/2022,06:08:05,0.005,0.0,0.0,0.0
25/08/2022,06:09:13,0.005,0.0,0.0,0.0
25/08/2022,06:10:05,0.006,0.0,0.0,0.0
25/08/2022,06:11:05,0.006,0.0,0.0,0.0
25/08/2022,06:12:05,0.006,0.0,0.0,0.0
25/08/2022,06:13:05,0.006,0.0,0.0,0.0
25/08/2022,06:14:05,0.007,0.0,0.0,0.0
25/08/2022,06:15:04,0.007,0.0,0.0,0.0
25/08/2022,06:16:05,0.005,0.0,0.0,0.0
25/08/2022,06:17:05,0.007,0.0,0.0,0.0
25/08/2022,06:18:04,0.006,0.0,0.0,0.0
25/08/2022,06:19:05,0.005,0.0,0.001,0.001
25/08/2022,06:20:05,0.005,0.0,0.001,0.0
25/08/2022,06:21:05,0.005,0.0,0.001,0.0
25/08/2022,06:22:05,0.006,0.0,0.001,0.0
25/08/2022,06:23:04,0.004,0.0,0.001,0.0
25/08/2022,06:24:04,0.005,0.0,0.001,0.0
25/08/2022,06:25:05,0.006,0.0,0.001,0.0
25/08/2022,06:26:05,0.006,0.0,0.001,0.0
25/08/2022,06:27:05,0.005,0.0,0.001,0.0
25/08/2022,06:28:05,0.006,0.0,0.001,0.0
25/08/2022,06:29:05,0.006,0.0,0.001,0.0
25/08/2022,06:30:05,0.006,0.0,0.001,0.0
25/08/2022,06:31:04,0.006,0.0,0.001,0.0
25/08/2022,06:32:13,0.008,0.0,0.001,0.0
25/08/2022,06:33:05,0.007,0.0,0.001,0.0
25/08/2022,06:34:05,0.009,0.0,0.001,0.0
25/08/2022,06:35:13,0.010,0.0,0.002,0.001
25/08/2022,06:36:05,0.010,0.0,0.002,0.0
25/08/2022,06:37:05,0.011,0.0,0.002,0.0
25/08/2022,06:38:13,0.013,0.0,0.002,0.0
25/08/2022,06:39:04,0.013,0.0,0.002,0.0
25/08/2022,06:40:02,0.011,0.0,0.002,0.0
25/08/2022,06:41:05,0.011,0.0,0.003,0.001
25/08/2022,06:42:04,0.011,0.0,0.003,0.0
25/08/2022,06:43:04,0.011,0.0,0.003,0.0
25/08/2022,06:44:05,0.012,0.0,0.003,0.0
25/08/2022,06:45:05,0.013,0.0,0.003,0.0
25/08/2022,06:46:05,0.013,0.0,0.004,0.001
25/08/2022,06:47:04,0.014,0.0,0.004,0.0
25/08/2022,06:48:05,0.017,0.0,0.004,0.0
25/08/2022,06:49:05,0.021,0.0,0.004,0.0
25/08/2022,06:50:05,0.020,0.0,0.005,0.001
25/08/2022,06:51:04,0.022,0.0,0.005,0.0
25/08/2022,06:52:04,0.023,0.0,0.005,0.0
25/08/2022,06:53:05,0.024,0.0,0.006,0.001
25/08/2022,06:54:04,0.023,0.0,0.006,0.0
25/08/2022,06:55:05,0.022,0.0,0.007,0.001
25/08/2022,06:56:05,0.022,0.0,0.007,0.0
25/08/2022,06:57:05,0.022,0.0,0.007,0.0
25/08/2022,06:58:05,0.021,0.0,0.008,0.001
25/08/2022,06:59:04,0.022,0.0,0.008,0.0
25/08/2022,07:00:05,0.022,0.0,0.008,0.0
25/08/2022,07:01:13,0.022,0.0,0.009,0.001
25/08/2022,07:02:05,0.021,0.0,0.009,0.0
25/08/2022,07:03:05,0.022,0.0,0.01,0.001
25/08/2022,07:04:05,0.023,0.0,0.01,0.0
25/08/2022,07:05:05,0.024,0.0,0.01,0.0
25/08/2022,07:06:05,0.024,0.0,0.011,0.001
25/08/2022,07:07:05,0.023,0.0,0.011,0.0
25/08/2022,07:08:04,0.023,0.0,0.012,0.001
25/08/2022,07:09:14,0.024,0.0,0.012,0.0
25/08/2022,07:10:05,0.024,0.0,0.012,0.0
25/08/2022,07:11:04,0.024,0.0,0.013,0.001
25/08/2022,07:12:13,0.025,0.0,0.013,0.0
25/08/2022,07:13:04,0.024,0.0,0.014,0.001
25/08/2022,07:14:05,0.025,0.0,0.014,0.0
25/08/2022,07:15:04,0.025,0.0,0.014,0.0
25/08/2022,07:16:05,0.026,0.0,0.015,0.001
25/08/2022,07:17:05,0.027,0.0,0.015,0.0
25/08/2022,07:18:05,0.028,0.0,0.016,0.001
25/08/2022,07:19:05,0.028,0.0,0.016,0.0
25/08/2022,07:20:06,0.029,0.0,0.017,0.001
25/08/2022,07:21:05,0.030,0.0,0.017,0.0
25/08/2022,07:22:05,0.031,0.0,0.018,0.001
25/08/2022,07:23:04,0.031,0.0,0.018,0.0
25/08/2022,07:24:05,0.032,0.0,0.019,0.001
25/08/2022,07:25:05,0.031,0.0,0.019,0.0
25/08/2022,07:26:05,0.031,0.0,0.02,0.001
25/08/2022,07:27:13,0.031,0.0,0.02,0.0
25/08/2022,07:28:05,0.031,0.0,0.021,0.001
25/08/2022,07:29:05,0.032,0.0,0.021,0.0
25/08/2022,07:30:05,0.034,0.0,0.022,0.001
25/08/2022,07:31:05,0.033,0.0,0.022,0.0
25/08/2022,07:32:05,0.036,0.0,0.023,0.001
25/08/2022,07:33:05,0.039,0.0,0.024,0.001
25/08/2022,07:34:05,0.043,0.0,0.024,0.0
25/08/2022,07:35:05,0.047,0.0,0.025,0.001
25/08/2022,07:36:05,0.048,0.0,0.026,0.001
25/08/2022,07:37:05,0.050,0.0,0.027,0.001
25/08/2022,07:38:13,0.053,0.0,0.028,0.001
25/08/2022,07:39:04,0.052,0.0,0.028,0.0
25/08/2022,07:40:05,0.053,0.0,0.029,0.001
25/08/2022,07:41:05,0.052,0.0,0.03,0.001
25/08/2022,07:42:05,0.051,0.0,0.031,0.001
25/08/2022,07:43:04,0.052,0.0,0.032,0.001
25/08/2022,07:44:05,0.049,0.0,0.033,0.001
25/08/2022,07:45:05,0.047,0.0,0.034,0.001
25/08/2022,07:46:05,0.045,0.0,0.034,0.0
25/08/2022,07:47:12,0.044,0.0,0.035,0.001
25/08/2022,07:48:05,0.041,0.0,0.036,0.001
25/08/2022,07:49:05,0.039,0.0,0.036,0.0
25/08/2022,07:50:05,0.038,0.0,0.037,0.001
25/08/2022,07:51:05,0.037,0.0,0.038,0.001
25/08/2022,07:52:22,0.038,0.0,0.038,0.0
25/08/2022,07:54:05,0.041,0.0,0.04,0.002
25/08/2022,07:55:05,0.045,0.0,0.04,0.0
25/08/2022,07:56:05,0.050,0.0,0.041,0.001
25/08/2022,07:57:05,0.056,0.0,0.042,0.001
25/08/2022,07:58:05,0.061,0.0,0.043,0.001
25/08/2022,07:59:05,0.066,0.0,0.044,0.001
25/08/2022,08:00:05,0.069,0.0,0.045,0.001
25/08/2022,08:01:05,0.072,0.0,0.046,0.001
25/08/2022,08:02:05,0.081,0.0,0.048,0.002
25/08/2022,08:03:05,0.087,0.0,0.049,0.001
25/08/2022,08:04:05,0.100,0.0,0.051,0.002
25/08/2022,08:05:05,0.107,0.0,0.052,0.001
25/08/2022,08:06:05,0.108,0.0,0.054,0.002
25/08/2022,08:07:14,0.105,0.0,0.056,0.002
25/08/2022,08:08:03,0.104,0.0,0.058,0.002
25/08/2022,08:09:05,0.105,0.0,0.059,0.001
25/08/2022,08:10:05,0.108,0.0,0.061,0.002
25/08/2022,08:11:05,0.107,0.0,0.063,0.002
25/08/2022,08:12:05,0.106,0.0,0.065,0.002
25/08/2022,08:13:05,0.104,0.0,0.066,0.001
25/08/2022,08:14:05,0.101,0.0,0.068,0.002
25/08/2022,08:15:05,0.096,0.0,0.07,0.002
25/08/2022,08:16:05,0.093,0.0,0.071,0.001
25/08/2022,08:17:05,0.091,0.0,0.073,0.002
25/08/2022,08:18:04,0.082,0.0,0.074,0.001
25/08/2022,08:19:05,0.077,0.0,0.076,0.002
25/08/2022,08:20:05,0.073,0.0,0.077,0.001
25/08/2022,08:21:07,0.070,0.0,0.078,0.001
25/08/2022,08:22:05,0.070,0.0,0.079,0.001
25/08/2022,08:23:05,0.072,0.0,0.081,0.002
25/08/2022,08:24:05,0.069,0.0,0.082,0.001
25/08/2022,08:25:05,0.069,0.0,0.083,0.001
25/08/2022,08:26:05,0.068,0.0,0.084,0.001
25/08/2022,08:27:04,0.069,0.0,0.085,0.001
25/08/2022,08:28:05,0.068,0.0,0.086,0.001
25/08/2022,08:29:05,0.073,0.0,0.087,0.001
25/08/2022,08:30:05,0.082,0.0,0.089,0.002
25/08/2022,08:31:05,0.090,0.0,0.09,0.001
25/08/2022,08:32:05,0.099,0.0,0.092,0.002
25/08/2022,08:33:05,0.100,0.0,0.093,0.001
25/08/2022,08:34:05,0.096,0.0,0.095,0.002
25/08/2022,08:35:05,0.091,0.0,0.097,0.002
25/08/2022,08:36:13,0.091,0.0,0.098,0.001
25/08/2022,08:37:05,0.090,0.0,0.1,0.002
25/08/2022,08:38:07,0.093,0.0,0.101,0.001
25/08/2022,08:39:05,0.096,0.0,0.103,0.002
25/08/2022,08:40:05,0.098,0.0,0.104,0.001
25/08/2022,08:41:13,0.101,0.0,0.106,0.002
25/08/2022,08:42:05,0.105,0.0,0.108,0.002
25/08/2022,08:43:05,0.110,0.0,0.109,0.001
25/08/2022,08:44:05,0.115,0.0,0.111,0.002
25/08/2022,08:45:05,0.119,0.0,0.113,0.002
25/08/2022,08:46:05,0.123,0.0,0.115,0.002
25/08/2022,08:47:05,0.125,0.0,0.117,0.002
25/08/2022,08:48:05,0.125,0.0,0.119,0.002
25/08/2022,08:49:06,0.126,0.0,0.122,0.003
25/08/2022,08:50:05,0.122,0.0,0.124,0.002
25/08/2022,08:51:05,0.111,0.0,0.126,0.002
25/08/2022,08:52:05,0.100,0.0,0.127,0.001
25/08/2022,08:52:56,0.093,0.0,0.129,0.002
25/08/2022,08:54:05,0.084,0.0,0.13,0.001
25/08/2022,08:55:05,0.080,0.0,0.132,0.002
25/08/2022,08:56:05,0.074,0.0,0.133,0.001
25/08/2022,08:57:05,0.069,0.0,0.134,0.001
25/08/2022,08:58:05,0.066,0.0,0.135,0.001
25/08/2022,08:59:05,0.064,0.0,0.136,0.001
25/08/2022,09:00:05,0.062,0.0,0.138,0.002
25/08/2022,09:01:05,0.060,0.0,0.139,0.001
25/08/2022,09:02:05,0.059,0.0,0.14,0.001
25/08/2022,09:03:05,0.061,0.0,0.141,0.001
25/08/2022,09:04:05,0.063,0.0,0.142,0.001
25/08/2022,09:05:05,0.065,0.0,0.143,0.001
25/08/2022,09:06:05,0.067,0.0,0.144,0.001
25/08/2022,09:07:13,0.068,0.0,0.145,0.001
25/08/2022,09:08:05,0.072,0.0,0.146,0.001
25/08/2022,09:09:05,0.076,0.0,0.147,0.001
25/08/2022,09:10:14,0.084,0.0,0.149,0.002
25/08/2022,09:11:05,0.091,0.0,0.15,0.001
25/08/2022,09:12:05,0.098,0.0,0.152,0.002
25/08/2022,09:13:05,0.104,0.0,0.153,0.001
25/08/2022,09:14:05,0.106,0.0,0.155,0.002
25/08/2022,09:15:05,0.105,0.0,0.157,0.002
25/08/2022,09:16:05,0.105,0.0,0.158,0.001
25/08/2022,09:17:05,0.105,0.0,0.16,0.002
25/08/2022,09:18:05,0.102,0.0,0.162,0.002
25/08/2022,09:19:05,0.100,0.0,0.164,0.002
25/08/2022,09:20:05,0.095,0.0,0.165,0.001
25/08/2022,09:21:05,0.095,0.0,0.167,0.002
25/08/2022,09:22:06,0.096,0.0,0.168,0.001
25/08/2022,09:23:04,0.097,0.0,0.17,0.002
25/08/2022,09:24:05,0.099,0.0,0.172,0.002
25/08/2022,09:25:05,0.098,0.0,0.173,0.001
25/08/2022,09:26:05,0.097,0.0,0.175,0.002
25/08/2022,09:27:05,0.098,0.0,0.177,0.002
25/08/2022,09:28:05,0.100,0.0,0.178,0.001
25/08/2022,09:29:05,0.106,0.0,0.18,0.002
25/08/2022,09:30:05,0.114,0.0,0.182,0.002
25/08/2022,09:31:05,0.126,0.0,0.184,0.002
25/08/2022,09:32:05,0.135,0.0,0.186,0.002
25/08/2022,09:33:14,0.140,0.0,0.189,0.003
25/08/2022,09:34:05,0.141,0.0,0.191,0.002
25/08/2022,09:35:07,0.147,0.0,0.193,0.002
25/08/2022,09:36:05,0.147,0.0,0.195,0.002
25/08/2022,09:37:05,0.143,0.0,0.198,0.003
25/08/2022,09:38:05,0.145,0.0,0.2,0.002
25/08/2022,09:39:05,0.154,0.0,0.203,0.003
25/08/2022,09:40:05,0.173,0.0,0.205,0.002
25/08/2022,09:41:05,0.200,0.0,0.208,0.003
25/08/2022,09:42:05,0.223,1.0,0.212,0.004
25/08/2022,09:43:05,0.242,1.0,0.216,0.004
25/08/2022,09:43:57,0.248,1.0,0.219,0.003
25/08/2022,09:45:06,0.243,1.0,0.224,0.005
25/08/2022,09:46:05,0.227,1.0,0.228,0.004
25/08/2022,09:47:05,0.207,0.0,0.232,0.004
25/08/2022,09:48:05,0.191,0.0,0.235,0.003
25/08/2022,09:49:05,0.187,0.0,0.238,0.003
25/08/2022,09:50:05,0.196,0.0,0.241,0.003
25/08/2022,09:51:05,0.200,0.0,0.245,0.004
25/08/2022,09:52:06,0.190,0.0,0.248,0.003
25/08/2022,09:53:05,0.165,0.0,0.251,0.003
25/08/2022,09:54:06,0.143,0.0,0.253,0.002
25/08/2022,09:55:05,0.132,0.0,0.256,0.003
25/08/2022,09:56:05,0.131,0.0,0.258,0.002
25/08/2022,09:57:05,0.142,0.0,0.26,0.002
25/08/2022,09:58:05,0.155,0.0,0.263,0.003
25/08/2022,09:59:14,0.167,0.0,0.266,0.003
25/08/2022,10:00:05,0.170,0.0,0.268,0.002
25/08/2022,10:01:05,0.159,0.0,0.271,0.003
25/08/2022,10:02:13,0.138,0.0,0.274,0.003
25/08/2022,10:03:05,0.123,0.0,0.276,0.002
25/08/2022,10:04:05,0.115,0.0,0.278,0.002
25/08/2022,10:05:05,0.113,0.0,0.28,0.002
25/08/2022,10:06:05,0.120,0.0,0.281,0.001
25/08/2022,10:07:05,0.131,0.0,0.283,0.002
25/08/2022,10:08:05,0.142,0.0,0.286,0.003
25/08/2022,10:09:05,0.147,0.0,0.288,0.002
25/08/2022,10:10:05,0.144,0.0,0.291,0.003
25/08/2022,10:11:05,0.134,0.0,0.293,0.002
25/08/2022,10:12:05,0.120,0.0,0.295,0.002
25/08/2022,10:13:05,0.108,0.0,0.297,0.002
25/08/2022,10:14:05,0.101,0.0,0.299,0.002
25/08/2022,10:15:05,0.098,0.0,0.3,0.001
25/08/2022,10:16:05,0.102,0.0,0.302,0.002
25/08/2022,10:17:05,0.108,0.0,0.304,0.002
25/08/2022,10:18:05,0.114,0.0,0.306,0.002
25/08/2022,10:19:05,0.114,0.0,0.307,0.001
25/08/2022,10:20:05,0.110,0.0,0.309,0.002